Probability
0 0 0 0 0 0 0 0 0 0 1 2 2 2 1 0 0 0 0 0 0 0 0 0 0 0 0 0 0 0 0 0 0 0 0 0 0 0 0 0 0 0 0
0 0 0 0 0 0 0 0 0 0 0 1 1 1 0 0 0 0 0 0 0 0 0 0 0 0 0 0 0 0 0 0 0 0 0 0 0 0 0 0 0 0 0
0 0 0 0 0 0 0 0 0 0 0 0 0 0 0 0 0 0 0 0 0 0 0 0 0 0 0 0 0 0 0 0 0 0 0 0 0 0 0 0 0 0 0
0 0 0 0 0 0 0 0 0 0 0 0 0 0 0 0 0 0 0 0 0 0 0 0 0 0 0 0 0 0 0 0 0 0 0 0 0 0 0 0 0 0 0
0 0 0 0 0 0 0 0 0 0 0 0 0 0 0 0 0 0 0 0 0 0 0 0 0 0 0 0 0 0 0 0 0 0 0 0 0 0 0 0 0 0 0
0 0 0 0 0 0 0 0 0 0 0 0 0 0 0 0 0 0 0 0 0 0 0 0 0 0 0 0 0 0 0 0 0 0 0 0 0 0 0 0 0 0 0
0 0 0 0 0 0 0 0 0 0 0 0 0 0 0 0 0 0 0 0 0 0 0 0 0 0 0 0 0 0 0 0 0 0 0 0 0 0 0 0 0 0 0
0 0 0 0 0 0 0 0 0 0 0 0 0 0 0 0 0 0 0 0 0 0 0 0 0 0 0 0 0 0 0 0 0 0 0 0 0 0 0 0 0 0 0
0 0 0 0 0 0 0 0 0 0 0 0 0 0 0 0 0 0 0 0 0 0 0 0 0 0 0 0 0 0 0 0 0 0 0 0 0 0 0 0 0 0 0
0 0 0 0 0 0 0 0 0 0 0 0 0 0 0 0 0 0 0 0 0 0 0 0 0 0 0 0 0 0 0 0 0 0 0 0 0 0 0 0 0 0 0
0 0 0 0 0 0 0 0 0 0 0 0 0 0 0 0 0 0 0 0 0 0 0 0 0 0 0 0 0 0 0 0 0 0 0 0 0 0 0 0 0 0 0
0 0 0 0 0 0 0 0 0 0 0 0 0 0 0 0 0 0 0 0 0 0 0 0 0 0 0 0 0 0 0 0 0 0 0 0 0 0 0 0 0 0 0
0 0 0 0 0 0 0 0 0 0 0 0 0 0 0 0 0 0 0 0 0 0 0 0 0 0 0 0 0 0 0 0 0 0 0 0 0 0 0 0 0 0 0
0 0 0 0 0 0 0 0 0 0 0 0 0 0 0 0 0 0 0 0 0 0 0 0 0 0 0 0 0 0 0 0 0 0 0 0 0 0 0 0 0 0 0
0 0 0 0 0 0 0 0 0 0 0 0 0 0 0 0 0 0 0 0 0 0 0 0 0 0 0 0 0 0 0 0 0 0 0 0 0 0 0 0 0 0 0
0 0 0 0 0 0 0 0 0 0 0 0 0 0 0 0 0 0 0 0 0 0 0 0 0 0 0 0 0 0 0 0 0 0 0 0 0 0 0 0 0 0 0
0 0 0 0 0 0 0 0 0 0 0 0 0 0 0 0 0 0 0 0 0 0 0 0 0 0 0 0 0 0 0 0 0 0 0 0 0 0 0 0 0 0 0
0 0 0 0 0 0 0 0 0 0 0 0 0 0 0 0 0 0 0 0 0 0 0 0 0 0 0 0 0 0 0 0 0 0 0 0 0 0 0 0 0 0 0
0 0 0 0 0 0 0 0 0 0 0 0 0 0 0 0 0 0 0 0 0 0 0 0 0 0 0 0 0 0 0 0 0 0 0 0 0 0 0 0 0 0 0
0 0 0 0 0 0 0 0 0 0 0 0 0 0 0 0 0 0 0 0 0 0 0 0 0 0 0 0 0 0 0 0 0 0 0 0 0 0 0 0 0 0 0
0 0 0 0 0 0 0 0 0 0 0 0 0 0 0 0 0 0 0 0 0 0 0 0 0 0 0 0 0 0 0 0 0 0 0 0 0 0 0 0 0 0 0
0 0 0 0 0 0 0 0 0 0 0 0 0 0 0 0 0 0 0 0 0 0 0 0 0 0 0 0 0 0 0 0 0 0 0 0 0 0 0 0 0 0 0
0 0 0 0 0 0 0 0 0 0 0 0 0 0 0 0 0 0 0 0 0 0 0 0 0 0 0 0 0 0 0 0 0 0 0 0 0 0 0 0 0 0 0
0 0 0 0 0 0 0 0 0 0 0 0 0 0 0 0 0 0 0 0 0 0 0 0 0 0 0 0 0 0 0 0 0 0 0 0 0 0 0 0 0 0 0
0 0 0 0 0 0 0 0 0 0 0 0 0 0 0 0 0 0 0 0 0 0 0 0 0 0 0 0 0 0 0 0 0 0 0 0 0 0 0 0 0 0 0
0 0 0 0 0 0 0 0 0 0 0 0 0 0 0 0 0 0 0 0 0 0 0 0 0 0 0 0 0 0 0 0 0 0 0 0 0 0 0 0 0 0 0
Wind_Speed
5 6 6 6 5 5 4 4 4 4 5 5 5 5 5 4 4 4 4 4 4 4 3 4 5 4 4 4 4 4 5 5 7 5 2 2 2 3 2 2 3 3 4
5 5 5 6 6 6 6 6 5 5 5 5 5 5 5 5 4 4 4 5 4 4 5 5 5 4 5 4 4 5 5 4 5 7 4 3 3 3 3 3 3 3 3
5 5 5 5 6 6 6 6 6 5 5 5 5 5 5 5 5 4 4 5 5 5 5 5 5 4 5 4 4 4 3 4 4 5 5 3 3 2 2 2 2 2 2
5 5 5 5 6 6 6 6 6 6 6 5 5 5 5 5 5 5 5 5 5 5 5 5 5 5 5 5 4 4 3 3 3 4 4 3 3 2 2 2 3 2 3
6 6 6 6 6 6 6 6 7 6 6 6 5 5 5 4 4 5 5 5 5 5 5 5 5 4 6 5 4 4 4 4 3 4 5 3 3 2 3 2 3 2 3
6 6 6 6 6 6 6 6 7 7 6 6 5 5 5 5 7 8 6 5 5 5 5 5 4 4 4 6 6 6 6 6 5 5 4 5 5 4 3 3 2 2 3
7 7 6 6 6 6 6 6 7 7 6 6 6 5 6 7 8 9 8 6 5 4 4 4 4 4 3 4 4 4 5 6 7 6 6 6 5 4 4 4 4 4 4
7 7 7 6 6 6 6 7 7 6 6 6 6 6 6 7 9 9 9 6 5 4 4 4 4 4 3 3 3 4 4 4 4 4 5 5 4 3 4 4 4 3 3
8 8 7 7 7 7 7 7 7 6 7 6 6 6 6 7 8 8 8 5 4 4 4 4 4 4 4 4 4 4 4 3 2 2 2 2 3 3 2 1 2 2 3
8 8 8 7 8 8 8 8 6 6 7 6 6 6 6 7 8 9 8 3 4 3 3 3 4 4 5 4 4 4 5 3 1 1 1 2 2 2 2 2 3 3 2
8 8 9 8 8 8 8 7 6 6 6 6 6 6 6 6 7 8 8 4 3 3 3 3 3 5 6 6 5 4 5 3 2 2 1 1 1 1 1 1 1 2 3
8 9 9 9 8 7 7 7 6 5 6 5 5 5 4 4 4 6 7 6 5 4 4 3 3 5 6 6 5 4 4 3 2 1 1 2 2 1 1 0 1 1 1
9 9 9 9 8 7 7 6 5 4 4 4 4 4 4 3 3 5 6 6 6 4 3 4 5 5 5 4 4 4 3 2 2 2 2 2 2 1 0 0 1 1 1
9 9 8 8 7 6 5 5 4 4 4 4 4 4 4 4 3 2 3 3 3 3 3 3 4 4 4 3 3 2 1 1 2 2 2 1 1 1 1 1 1 1 1
8 8 8 7 7 6 5 5 5 5 5 5 5 4 5 5 5 6 5 3 3 2 3 3 2 2 2 1 1 1 1 1 1 1 1 1 1 1 1 1 1 1 1
7 7 6 6 5 5 5 5 6 7 8 9 8 7 6 7 8 8 7 6 6 5 3 3 3 3 3 2 2 2 2 2 2 1 1 1 2 2 1 1 1 1 2
7 7 6 6 5 4 4 4 5 6 7 8 8 8 7 7 7 7 6 5 5 3 2 2 3 3 3 3 2 2 2 2 1 2 2 1 1 1 1 1 1 1 1
6 7 6 5 5 4 4 4 4 5 6 5 6 8 8 7 7 7 6 4 3 2 2 3 3 3 3 3 3 2 2 1 1 1 1 1 1 2 2 2 2 2 2
6 5 5 5 5 4 4 4 4 4 5 5 4 5 6 7 7 6 5 2 2 2 2 3 3 3 3 3 3 2 2 2 2 2 2 2 2 2 2 2 3 3 2
5 6 6 5 4 4 4 4 4 4 4 4 4 4 4 3 3 3 3 2 2 3 3 3 3 3 3 3 2 2 2 2 2 2 2 2 2 2 3 3 3 3 3
4 5 6 4 4 4 4 4 4 4 4 4 4 4 6 4 3 3 3 3 3 3 3 3 3 3 2 2 2 3 3 3 3 3 2 2 2 2 2 3 3 3 2
4 4 4 4 4 4 4 4 4 4 4 4 4 4 6 4 3 3 3 3 3 3 3 3 3 3 3 3 3 3 3 3 3 3 3 3 3 3 3 2 2 2 2
4 4 4 4 4 4 4 3 3 3 3 3 3 3 3 3 3 3 4 3 3 3 3 3 3 3 3 3 3 3 4 4 4 4 3 3 3 3 3 3 3 3 3
3 4 4 4 3 3 3 4 3 3 3 3 3 3 3 3 3 4 4 4 3 3 3 3 3 4 5 4 3 3 3 4 4 4 5 5 4 3 3 3 4 4 4
3 3 3 3 3 3 4 4 3 3 3 3 3 3 3 3 4 4 4 3 4 4 4 4 3 4 5 5 5 4 5 6 6 4 4 4 5 5 4 4 4 4 4
3 3 3 3 3 3 3 4 4 4 3 3 3 3 3 4 4 4 3 3 4 4 4 4 4 5 6 5 5 5 5 6 6 5 4 4 5 5 5 4 5 4 4
Wind_Direction
340 338 334 333 336 333 321 310 308 310 312 310 311 312 306 296 294 294 286 272 255 249 244 238 246 247 244 241 238 239 239 237 253 259 245 232 219 227 239 239 237 227 229
332 332 329 330 331 328 325 322 319 311 307 307 309 308 307 306 299 288 292 287 270 260 255 248 246 246 248 246 244 242 243 241 247 261 259 243 242 237 226 234 248 247 234
326 323 323 323 322 321 320 318 315 310 309 310 308 304 305 303 297 289 281 276 275 266 259 252 248 238 241 243 245 247 251 258 253 256 260 252 250 237 234 249 249 249 249
318 312 311 312 312 312 312 312 311 309 305 304 303 298 297 299 299 301 297 286 282 281 271 259 251 239 238 237 239 243 251 255 253 257 261 255 248 242 219 233 252 244 255
309 304 301 302 305 305 307 308 309 306 302 298 297 298 299 295 296 303 298 293 289 289 285 278 267 251 243 239 241 239 239 244 247 249 255 257 250 241 235 234 242 256 259
298 294 295 297 299 300 302 305 303 300 300 300 296 295 295 295 303 305 306 294 291 286 287 287 280 258 245 242 238 231 228 236 240 245 254 254 255 251 256 244 244 252 257
298 294 295 295 296 296 299 300 295 295 297 293 289 288 287 289 298 302 302 294 284 281 283 288 289 285 272 257 243 235 236 239 238 240 246 250 254 247 244 248 247 249 253
300 298 297 296 293 295 294 292 291 294 291 288 286 285 286 288 294 301 305 292 283 280 280 281 285 286 285 283 265 250 247 249 248 247 250 259 263 255 239 244 253 272 288
306 304 302 297 292 289 285 285 288 290 286 284 285 283 283 288 290 296 304 292 288 294 296 288 283 285 289 292 273 263 263 268 279 249 266 289 299 293 263 239 236 240 265
303 302 300 295 289 286 283 282 284 283 281 284 283 281 279 282 285 290 297 289 284 288 294 289 278 282 288 293 276 260 256 263 268 291 301 312 293 267 245 225 217 222 251
308 305 301 296 289 285 283 281 280 278 279 280 283 284 282 279 282 286 290 287 277 279 280 285 286 294 295 292 288 277 262 267 261 261 273 281 284 275 276 264 242 222 232
309 304 300 296 290 286 282 280 279 275 273 274 280 285 283 282 283 287 289 290 292 282 279 284 288 288 295 300 295 280 285 288 265 245 259 267 263 260 283 312 312 291 264
306 299 295 293 288 284 279 278 279 273 270 272 270 277 286 292 292 295 293 296 296 294 288 282 286 292 301 303 295 283 285 269 244 235 248 264 275 262 207 107 357 359 344
300 298 296 295 293 288 280 274 271 271 270 271 271 275 284 290 288 288 287 298 306 307 304 294 291 292 299 311 317 312 291 257 235 238 249 264 274 262 261 254 252 253 304
301 299 299 295 291 290 284 280 277 270 268 273 268 266 270 276 274 277 284 288 286 280 299 298 292 287 284 287 299 301 286 268 256 234 223 241 247 249 265 276 260 244 236
300 300 300 298 297 294 294 301 301 297 299 292 289 289 286 285 292 286 282 285 286 288 294 271 271 266 259 258 254 261 253 243 245 242 237 241 244 247 259 264 257 235 243
291 295 298 297 296 297 298 299 306 317 315 307 301 300 298 298 299 300 300 300 295 290 277 262 261 259 258 256 253 251 249 245 237 231 232 233 244 253 256 257 253 251 247
289 289 291 294 297 296 294 294 294 298 308 312 314 310 311 312 313 316 315 316 300 286 254 255 257 258 257 253 248 250 251 237 235 237 234 234 234 242 247 247 246 246 247
289 291 293 295 296 297 297 294 291 290 291 298 308 313 317 317 317 317 324 311 281 281 276 268 265 262 259 251 247 246 241 235 234 226 224 229 235 238 250 254 253 246 246
285 289 296 295 297 298 297 295 294 293 293 295 298 306 319 318 312 314 311 294 285 284 284 279 277 268 259 248 243 239 233 231 228 231 227 225 230 233 238 248 255 251 248
290 292 294 293 289 290 292 292 292 293 292 291 294 301 309 311 305 303 301 296 287 284 284 281 278 274 266 258 247 235 227 230 225 227 232 228 230 236 235 236 247 255 259
285 287 289 288 288 289 289 288 290 291 292 295 304 311 313 316 305 299 296 293 288 282 279 280 280 277 268 259 250 240 236 233 225 220 228 228 223 227 233 233 231 239 236
286 287 287 285 284 286 289 291 292 294 297 300 304 311 314 307 301 298 298 300 297 292 289 280 276 279 276 266 256 243 236 237 230 217 220 230 226 221 219 223 222 228 234
286 287 290 293 296 297 298 300 298 296 297 299 300 299 299 300 298 298 298 299 298 296 292 284 277 275 276 274 267 254 244 243 237 226 217 221 227 219 213 217 221 222 228
282 284 288 291 295 298 300 300 299 298 296 295 295 294 294 295 294 295 297 298 298 297 298 294 288 282 276 270 269 263 252 252 246 231 216 214 216 214 211 214 218 220 227
284 284 286 290 291 292 293 294 295 296 293 292 291 290 291 291 291 293 295 295 296 297 297 294 287 285 283 279 272 268 261 256 246 231 213 206 208 209 206 212 214 217 224